TimeMST,TemperatureF,Dew PointF,Humidity,Sea Level PressureIn,VisibilityMPH,Wind Direction,Wind SpeedMPH,Gust SpeedMPH,PrecipitationIn,Events,Conditions,WindDirDegrees,DateUTC
12:15 AM,46.4,14.0,27,30.21,10.0,South,3.5,-,N/A,,Clear,180,2012-11-06 07:15:00
12:35 AM,46.4,14.0,27,30.21,10.0,South,4.6,-,N/A,,Clear,190,2012-11-06 07:35:00
12:55 AM,46.4,14.0,27,30.20,10.0,SSW,5.8,-,N/A,,Clear,200,2012-11-06 07:55:00
1:15 AM,46.4,14.0,27,30.21,10.0,South,5.8,-,N/A,,Clear,190,2012-11-06 08:15:00
1:35 AM,48.2,14.0,25,30.21,10.0,SW,4.6,-,N/A,,Clear,230,2012-11-06 08:35:00
1:55 AM,42.8,12.2,29,30.21,10.0,Calm,Calm,-,N/A,,Clear,0,2012-11-06 08:55:00
2:15 AM,44.6,14.0,29,30.21,10.0,SE,4.6,-,N/A,,Clear,130,2012-11-06 09:15:00
2:35 AM,39.2,12.2,33,30.21,10.0,ESE,4.6,-,N/A,,Clear,120,2012-11-06 09:35:00
2:55 AM,39.2,12.2,33,30.21,10.0,SSE,5.8,-,N/A,,Clear,160,2012-11-06 09:55:00
3:15 AM,39.2,12.2,33,30.21,10.0,South,3.5,-,N/A,,Clear,170,2012-11-06 10:15:00
3:35 AM,39.2,12.2,33,30.21,10.0,South,3.5,-,N/A,,Clear,180,2012-11-06 10:35:00
3:55 AM,41.0,14.0,33,30.21,10.0,South,6.9,-,N/A,,Clear,180,2012-11-06 10:55:00
4:15 AM,41.0,14.0,33,30.21,10.0,Calm,Calm,-,N/A,,Clear,0,2012-11-06 11:15:00
4:35 AM,37.4,10.4,33,30.21,10.0,Calm,Calm,-,N/A,,Clear,0,2012-11-06 11:35:00
4:55 AM,35.6,10.4,35,30.21,10.0,Calm,Calm,-,N/A,,Clear,0,2012-11-06 11:55:00
5:15 AM,37.4,10.4,33,30.23,10.0,Calm,Calm,-,N/A,,Clear,0,2012-11-06 12:15:00
5:35 AM,35.6,8.6,33,30.23,10.0,SSE,3.5,-,N/A,,Clear,160,2012-11-06 12:35:00
5:55 AM,33.8,8.6,35,30.23,10.0,SE,4.6,-,N/A,,Clear,130,2012-11-06 12:55:00
6:15 AM,35.6,10.4,35,30.24,10.0,ESE,3.5,-,N/A,,Clear,120,2012-11-06 13:15:00
6:35 AM,35.6,10.4,35,30.24,10.0,SSE,3.5,-,N/A,,Clear,150,2012-11-06 13:35:00
6:55 AM,37.4,12.2,36,30.25,10.0,South,4.6,-,N/A,,Clear,180,2012-11-06 13:55:00
7:15 AM,41.0,14.0,33,30.26,10.0,South,3.5,-,N/A,,Clear,190,2012-11-06 14:15:00
7:35 AM,44.6,15.8,31,30.27,10.0,Calm,Calm,-,N/A,,Clear,0,2012-11-06 14:35:00
7:55 AM,50.0,17.6,28,30.28,10.0,Calm,Calm,-,N/A,,Clear,0,2012-11-06 14:55:00
8:15 AM,51.8,17.6,26,30.28,10.0,Calm,Calm,-,N/A,,Clear,0,2012-11-06 15:15:00
8:35 AM,53.6,15.8,22,30.28,10.0,Calm,Calm,-,N/A,,Clear,0,2012-11-06 15:35:00
8:55 AM,55.4,17.6,23,30.28,10.0,Calm,Calm,-,N/A,,Clear,0,2012-11-06 15:55:00
9:15 AM,60.8,19.4,20,30.28,10.0,Calm,Calm,-,N/A,,Clear,0,2012-11-06 16:15:00
9:35 AM,64.4,21.2,19,30.28,10.0,Calm,Calm,-,N/A,,Clear,0,2012-11-06 16:35:00
9:55 AM,64.4,21.2,19,30.28,10.0,Calm,Calm,-,N/A,,Clear,0,2012-11-06 16:55:00
10:15 AM,68.0,21.2,17,30.28,10.0,Calm,Calm,-,N/A,,Clear,0,2012-11-06 17:15:00
10:35 AM,69.8,23.0,17,30.27,10.0,Calm,Calm,-,N/A,,Clear,0,2012-11-06 17:35:00
10:55 AM,71.6,23.0,16,30.27,10.0,Calm,Calm,-,N/A,,Clear,0,2012-11-06 17:55:00
11:15 AM,71.6,23.0,16,30.25,10.0,Calm,Calm,-,N/A,,Clear,0,2012-11-06 18:15:00
11:35 AM,73.4,21.2,14,30.24,10.0,Calm,Calm,-,N/A,,Clear,0,2012-11-06 18:35:00
11:55 AM,75.2,21.2,13,30.23,10.0,Calm,Calm,-,N/A,,Clear,0,2012-11-06 18:55:00
12:15 PM,77.0,21.2,12,30.22,10.0,Calm,Calm,-,N/A,,Clear,0,2012-11-06 19:15:00
12:35 PM,77.0,21.2,12,30.21,10.0,North,3.5,-,N/A,,Clear,360,2012-11-06 19:35:00
12:55 PM,78.8,21.2,12,30.20,10.0,West,3.5,-,N/A,,Clear,270,2012-11-06 19:55:00
1:15 PM,78.8,21.2,12,30.19,10.0,Calm,Calm,-,N/A,,Clear,0,2012-11-06 20:15:00
1:35 PM,80.6,21.2,11,30.18,10.0,West,4.6,-,N/A,,Clear,280,2012-11-06 20:35:00
1:55 PM,80.6,21.2,11,30.17,10.0,NW,5.8,-,N/A,,Clear,310,2012-11-06 20:55:00
2:15 PM,80.6,19.4,10,30.16,10.0,WNW,5.8,-,N/A,,Clear,290,2012-11-06 21:15:00
2:35 PM,80.6,17.6,10,30.16,10.0,NNW,3.5,-,N/A,,Clear,330,2012-11-06 21:35:00
2:55 PM,80.6,17.6,10,30.16,10.0,Calm,Calm,-,N/A,,Clear,0,2012-11-06 21:55:00
3:15 PM,80.6,17.6,10,30.16,10.0,WNW,5.8,-,N/A,,Clear,300,2012-11-06 22:15:00
3:35 PM,80.6,14.0,8,30.16,10.0,West,6.9,-,N/A,,Clear,280,2012-11-06 22:35:00
3:55 PM,80.6,14.0,8,30.15,10.0,WNW,5.8,-,N/A,,Clear,290,2012-11-06 22:55:00
4:15 PM,80.6,15.8,9,30.15,10.0,West,5.8,-,N/A,,Clear,280,2012-11-06 23:15:00
4:35 PM,80.6,15.8,9,30.15,10.0,WNW,5.8,-,N/A,,Clear,290,2012-11-06 23:35:00
4:55 PM,78.8,17.6,10,30.15,10.0,West,4.6,-,N/A,,Clear,280,2012-11-06 23:55:00
5:15 PM,73.4,17.6,12,30.15,10.0,WNW,3.5,-,N/A,,Clear,290,2012-11-07 00:15:00
5:35 PM,69.8,17.6,14,30.15,10.0,West,3.5,-,N/A,,Clear,270,2012-11-07 00:35:00
5:55 PM,66.2,14.0,13,30.16,10.0,WSW,5.8,-,N/A,,Clear,250,2012-11-07 00:55:00
6:15 PM,64.4,14.0,14,30.16,10.0,WSW,5.8,-,N/A,,Clear,250,2012-11-07 01:15:00
6:35 PM,62.6,14.0,15,30.17,10.0,WSW,4.6,-,N/A,,Clear,250,2012-11-07 01:35:00
6:55 PM,60.8,14.0,16,30.17,10.0,Calm,Calm,-,N/A,,Clear,0,2012-11-07 01:55:00
7:15 PM,60.8,15.8,17,30.17,10.0,Calm,Calm,-,N/A,,Clear,0,2012-11-07 02:15:00
7:35 PM,59.0,14.0,17,30.18,10.0,Calm,Calm,-,N/A,,Clear,0,2012-11-07 02:35:00
7:55 PM,59.0,14.0,17,30.18,10.0,Calm,Calm,-,N/A,,Clear,0,2012-11-07 02:55:00
8:15 PM,57.2,14.0,18,30.18,10.0,West,3.5,-,N/A,,Clear,280,2012-11-07 03:15:00
8:35 PM,55.4,12.2,18,30.18,10.0,West,3.5,-,N/A,,Clear,270,2012-11-07 03:35:00
8:55 PM,55.4,14.0,20,30.18,10.0,Calm,Calm,-,N/A,,Clear,0,2012-11-07 03:55:00
9:15 PM,55.4,14.0,20,30.19,10.0,WSW,3.5,-,N/A,,Clear,250,2012-11-07 04:15:00
9:35 PM,51.8,12.2,21,30.19,10.0,Calm,Calm,-,N/A,,Clear,0,2012-11-07 04:35:00
9:55 PM,50.0,10.4,20,30.19,10.0,SE,4.6,-,N/A,,Clear,140,2012-11-07 04:55:00
10:15 PM,46.4,10.4,23,30.20,10.0,SSE,4.6,-,N/A,,Clear,160,2012-11-07 05:15:00
10:35 PM,50.0,12.2,22,30.20,10.0,South,4.6,-,N/A,,Clear,170,2012-11-07 05:35:00
10:55 PM,46.4,10.4,23,30.20,10.0,Calm,Calm,-,N/A,,Clear,0,2012-11-07 05:55:00
11:15 PM,44.6,10.4,25,30.20,10.0,Calm,Calm,-,N/A,,Clear,0,2012-11-07 06:15:00
11:35 PM,46.4,10.4,23,30.20,10.0,Calm,Calm,-,N/A,,Clear,0,2012-11-07 06:35:00
11:55 PM,48.2,12.2,24,30.20,10.0,South,6.9,-,N/A,,Clear,170,2012-11-07 06:55:00